This demonstration page uses our WeatherBlox Daily Observations layout. Learn more.

Hourly Observations for August 28, 2016

Temp ( °F °C ) Dew Point ( °F °C ) Humidity (%) Winds ( mph kmh ) Pressure ( in mb ) Visibility ( mi km ) Precip ( " mm )
12:15 am 00:15 Clear 69 20.7 64 18 85 85 SE 7 11 29.94 1014 10 16.09344 0 0
12:35 am 00:35 Clear 69 20.5 64 18 86 86 SE 7 11 29.94 1014 10 16.09344 0 0
12:55 am 00:55 Clear 69 20.3 64 17.9 86 86 SE 7 11 29.94 1014 10 16.09344 0 0
1:15 am 01:15 Clear 68 20.1 64 18 88 88 SE 6 9 29.97 1015 10 16.09344 0 0
1:35 am 01:35 Clear 68 20 64 18 88 88 SE 7 11 29.97 1015 10 16.09344 0 0
1:55 am 01:55 Clear 67 19.7 64 18 90 90 SE 6 9 29.97 1015 10 16.09344 0 0
2:15 am 02:15 Clear 67 19.7 64 18 90 90 SE 6 9 29.97 1015 10 16.09344 0 0
2:35 am 02:35 Clear 67 19.5 64 17.9 91 91 SE 6 9 29.97 1015 10 16.09344 0 0
2:55 am 02:55 Clear 67 19.2 64 17.8 92 92 SE 6 9 29.97 1015 10 16.09344 0 0
3:15 am 03:15 Clear 67 19.5 64 18 91 91 SE 7 11 29.97 1015 10 16.09344 0 0
3:35 am 03:35 Clear 67 19.4 64 18 92 92 SE 6 9 29.97 1015 10 16.09344 0 0
3:55 am 03:55 Clear 66 19 64 17.7 92 92 SE 5 7 29.97 1015 10 16.09344 0 0
4:15 am 04:15 Clear 66 18.7 64 17.6 93 93 SE 5 7 29.97 1015 10 16.09344 0 0
4:35 am 04:35 Clear 67 19.2 65 18.1 93 93 SSE 6 9 29.97 1015 10 16.09344 0 0
4:55 am 04:55 Clear 68 20 65 18.6 92 92 S 8 13 29.97 1015 10 16.09344 0 0
5:15 am 05:15 Clear 68 20 65 18.5 91 91 S 8 13 29.97 1015 10 16.09344 0 0
5:35 am 05:35 Clear 68 20 65 18.6 92 92 S 8 13 29.97 1015 10 16.09344 0 0
5:55 am 05:55 Clear 67 19.7 65 18.3 92 92 S 6 9 29.97 1015 10 16.09344 0 0
6:15 am 06:15 Clear 67 19.4 64 18 92 92 S 5 7 29.97 1015 10 16.09344 0 0
6:35 am 06:35 Clear 66 19 64 17.6 92 92 S 5 7 29.97 1015 10 16.09344 0 0
6:55 am 06:55 Clear 67 19.3 64 18 92 92 S 6 9 29.97 1015 10 16.09344 0 0
7:15 am 07:15 Sunny 66 19 64 17.6 92 92 S 5 7 29.97 1015 10 16.09344 0 0
7:35 am 07:35 Sunny 66 18.7 64 17.5 93 93 S 3 6 29.97 1015 7 11.265408 0 0
7:55 am 07:55 Sunny 66 18.8 64 17.5 92 92 Calm 29.97 1015 7 11.265408 0 0
8:15 am 08:15 Sunny 67 19.5 65 18.1 92 92 SSE 5 7 30 1016 10 16.09344 0 0
8:35 am 08:35 Sunny 68 20.2 65 18.3 89 89 SSE 5 7 30 1016 10 16.09344 0 0
8:55 am 08:55 Sunny 69 20.6 65 18.2 86 86 SSE 6 9 29.97 1015 10 16.09344 0 0
9:15 am 09:15 Sunny 70 21.3 65 18.2 83 83 SSE 8 13 29.97 1015 10 16.09344 0 0
9:35 am 09:35 Sunny 71 21.6 65 18.1 81 81 S 8 13 29.97 1015 10 16.09344 0 0
9:55 am 09:55 Sunny 73 22.7 64 17.9 74 74 S 8 13 29.97 1015 10 16.09344 0 0
10:15 am 10:15 Sunny 74 23.3 64 17.6 70 70 S 8 13 30 1016 10 16.09344 0 0
10:35 am 10:35 Sunny 77 24.8 64 17.7 65 65 S 12 19 29.97 1015 10 16.09344 0 0
10:55 am 10:55 Sunny 78 25.5 64 17.5 61 61 SSW 10 17 29.97 1015 10 16.09344 0 0
11:15 am 11:15 Sunny 79 26.1 65 18.1 61 61 S 9 15 29.97 1015 10 16.09344 0 0
11:35 am 11:35 Sunny 80 26.7 63 17.2 56 56 S 8 13 29.97 1015 10 16.09344 0 0
11:55 am 11:55 Sunny 79 26.1 63 17 57 57 S 7 11 29.97 1015 10 16.09344 0 0
12:15 pm 12:15 Sunny 81 27.1 63 17.1 54 54 SSW 8 13 29.97 1015 10 16.09344 0 0
12:35 pm 12:35 Sunny 82 27.6 61 16.3 50 50 S 6 9 29.91 1013 10 16.09344 0 0
12:55 pm 12:55 Sunny 82 27.9 61 16.3 49 49 S 6 9 29.91 1013 10 16.09344 0 0
1:15 pm 13:15 Sunny 82 28 62 16.6 50 50 S 6 9 29.91 1013 10 16.09344 0 0
1:35 pm 13:35 Sunny 83 28.5 63 17 50 50 SSE 8 13 29.91 1013 10 16.09344 0 0
1:55 pm 13:55 Sunny 84 28.7 63 17.4 50 50 SSE 10 17 29.91 1013 10 16.09344 0 0
2:15 pm 14:15 Sunny 85 29.3 63 17.1 48 48 SSE 10 17 29.91 1013 10 16.09344 0 0
2:35 pm 14:35 Sunny 85 29.5 63 17 47 47 S 10 17 29.91 1013 10 16.09344 0 0
2:55 pm 14:55 Sunny 85 29.5 62 16.8 46 46 SSE 12 19 29.88 1012 10 16.09344 0 0
3:15 pm 15:15 Sunny 85 29.2 63 17.1 48 48 SSE 10 17 29.88 1012 10 16.09344 0 0
3:35 pm 15:35 Sunny 83 28.5 63 17.2 50 50 SSE 10 17 29.88 1012 10 16.09344 0 0
3:55 pm 15:55 Sunny 82 28 62 16.7 50 50 SSE 12 19 29.88 1012 10 16.09344 0 0
4:15 pm 16:15 Sunny 82 28 63 17.2 52 52 SSE 13 20 29.88 1012 10 16.09344 0 0
4:35 pm 16:35 Sunny 83 28.5 64 17.5 51 51 SSW 13 20 29.88 1012 10 16.09344 0 0
4:55 pm 16:55 Sunny 84 28.8 62 16.8 48 48 S 13 20 29.88 1012 7 11.265408 0 0
5:15 pm 17:15 Sunny 85 29.3 60 15.5 43 43 SSE 16 26 29.88 1012 10 16.09344 0 0
5:35 pm 17:35 Sunny 84 29 58 14.5 41 41 S 13 20 29.88 1012 10 16.09344 0 0
5:55 pm 17:55 Sunny 83 28.5 61 15.9 46 46 SSW 12 19 29.88 1012 10 16.09344 0 0
6:15 pm 18:15 Sunny 81 27.4 61 15.9 49 49 S 8 13 29.88 1012 10 16.09344 0 0
6:35 pm 18:35 Sunny 82 27.8 62 16.5 50 50 SSW 7 11 29.88 1012 10 16.09344 0 0
6:55 pm 18:55 Sunny 81 27.1 62 16.6 53 53 S 6 9 29.91 1013 10 16.09344 0 0
7:15 pm 19:15 Sunny 81 27.1 63 17.1 54 54 S 5 7 29.91 1013 10 16.09344 0 0
7:35 pm 19:35 Sunny 80 26.8 63 17.3 56 56 S 5 7 29.91 1013 10 16.09344 0 0
7:55 pm 19:55 Sunny 79 26.1 64 17.7 60 60 Calm 29.94 1014 10 16.09344 0 0
8:15 pm 20:15 Sunny 76 24.6 64 17.8 66 66 SE 3 6 29.94 1014 10 16.09344 0 0
8:35 pm 20:35 Clear 75 24 64 17.8 68 68 S 3 6 29.94 1014 10 16.09344 0 0
8:55 pm 20:55 Clear 74 23.4 64 18 72 72 Calm 29.97 1015 10 16.09344 0 0
9:15 pm 21:15 Clear 72 22.4 64 18 76 76 Calm 30 1016 10 16.09344 0 0
9:35 pm 21:35 Clear 70 21 64 17.6 81 81 ESE 5 7 30 1016 10 16.09344 0 0
9:55 pm 21:55 Clear 69 20.5 64 17.5 83 83 E 3 6 30.03 1017 10 16.09344 0 0
10:15 pm 22:15 Clear 70 21 64 17.9 83 83 SE 3 6 30 1016 10 16.09344 0 0
10:35 pm 22:35 Clear 72 22 64 18 78 78 SSE 5 7 30 1016 10 16.09344 0 0
10:55 pm 22:55 Clear 70 21.1 64 17.6 81 81 SSE 5 7 30 1016 10 16.09344 0 0
11:15 pm 23:15 Clear 69 20.5 64 17.5 83 83 Calm 30.03 1017 10 16.09344 0 0
11:35 pm 23:35 Clear 69 20.7 64 17.5 82 82 ESE 3 6 30.03 1017 10 16.09344 0 0
11:55 pm 23:55 Clear 67 19.5 63 17.1 86 86 Calm 30.03 1017 10 16.09344 0 0

Powered by AerisWeather